TimeEST,TemperatureF,Dew PointF,Humidity,Sea Level PressureIn,VisibilityMPH,Wind Direction,Wind SpeedMPH,Gust SpeedMPH,PrecipitationIn,Events,Conditions,WindDirDegrees,DateUTC
12:51 AM,42.1,32.0,67,30.11,-9999.0,NE,13.8,-,N/A,,Unknown,50,2013-11-03 04:51:00
1:51 AM,41.0,30.9,67,30.14,-9999.0,NE,13.8,-,N/A,,Unknown,50,2013-11-03 05:51:00
1:51 AM,41.0,30.0,65,30.16,-9999.0,NE,11.5,-,N/A,,Unknown,50,2013-11-03 06:51:00
2:51 AM,41.0,30.0,65,30.18,-9999.0,NE,11.5,-,N/A,,Unknown,40,2013-11-03 07:51:00
3:51 AM,39.9,28.9,65,30.21,-9999.0,NE,9.2,-,N/A,,Unknown,50,2013-11-03 08:51:00
4:51 AM,39.9,28.9,65,30.24,-9999.0,NE,9.2,-,N/A,,Unknown,50,2013-11-03 09:51:00
5:51 AM,39.9,28.9,65,30.26,-9999.0,NE,10.4,-,N/A,,Unknown,50,2013-11-03 10:51:00
6:51 AM,39.0,28.0,65,30.29,-9999.0,NE,10.4,-,N/A,,Unknown,50,2013-11-03 11:51:00
7:51 AM,39.0,28.0,65,30.33,-9999.0,NE,9.2,-,N/A,,Unknown,50,2013-11-03 12:51:00
8:51 AM,39.9,28.9,65,30.35,-9999.0,ENE,12.7,-,N/A,,Unknown,60,2013-11-03 13:51:00
9:51 AM,39.9,27.0,60,30.37,-9999.0,ENE,8.1,-,N/A,,Unknown,60,2013-11-03 14:51:00
10:51 AM,39.9,27.0,60,30.39,-9999.0,ENE,9.2,-,N/A,,Unknown,60,2013-11-03 15:51:00
11:51 AM,41.0,28.0,60,30.40,-9999.0,East,9.2,-,N/A,,Unknown,90,2013-11-03 16:51:00
12:51 PM,39.9,27.0,60,30.40,-9999.0,East,8.1,-,N/A,,Unknown,90,2013-11-03 17:51:00
1:51 PM,39.9,30.0,68,30.40,-9999.0,SE,9.2,-,N/A,,Unknown,130,2013-11-03 18:51:00
2:51 PM,41.0,28.9,62,30.41,-9999.0,ESE,9.2,-,N/A,,Unknown,110,2013-11-03 19:51:00
3:51 PM,39.9,28.9,65,30.42,-9999.0,East,9.2,-,N/A,,Unknown,100,2013-11-03 20:51:00
4:51 PM,39.0,28.0,65,30.42,-9999.0,East,10.4,-,N/A,,Unknown,90,2013-11-03 21:51:00
5:51 PM,39.0,28.0,65,30.43,-9999.0,ESE,9.2,-,N/A,,Unknown,110,2013-11-03 22:51:00
6:51 PM,34.0,28.0,79,30.45,-9999.0,SE,5.8,-,N/A,,Unknown,140,2013-11-03 23:51:00
7:51 PM,33.1,27.0,78,30.47,-9999.0,Calm,Calm,-,N/A,,Unknown,0,2013-11-04 00:51:00
8:51 PM,32.0,26.1,79,30.46,-9999.0,South,3.5,-,N/A,,Unknown,180,2013-11-04 01:51:00
9:51 PM,32.0,26.1,79,30.47,-9999.0,South,3.5,-,N/A,,Unknown,190,2013-11-04 02:51:00
10:51 PM,30.9,25.0,79,30.48,-9999.0,South,3.5,-,N/A,,Unknown,190,2013-11-04 03:51:00